Date,TemperatureHighF,TemperatureAvgF,TemperatureLowF,DewpointHighF,DewpointAvgF,DewpointLowF,HumidityHigh,HumidityAvg,HumidityLow,PressureMaxIn,PressureMinIn,WindSpeedMaxMPH,WindSpeedAvgMPH,GustSpeedMaxMPH,PrecipitationSumIn
2014-1-1,56.2,42.1,29.6,43.6,34.0,21.1,88,74,49,30.44,30.15,2,0,5,0.00
2014-1-2,58.5,51.3,47.2,52.9,46.5,42.9,90,84,74,30.15,29.51,12,1,20,0.00
2014-1-3,51.7,36.4,25.9,44.4,21.5,11.4,81,56,37,30.48,29.56,12,5,25,0.00
2014-1-4,47.2,35.4,23.7,32.8,23.0,11.1,71,61,49,30.53,30.29,4,1,12,0.00
2014-1-5,67.2,56.1,37.6,62.7,51.0,28.7,97,83,66,30.29,29.85,5,1,14,0.00
2014-1-6,68.1,55.6,33.4,65.8,49.7,14.7,98,82,43,30.08,29.66,11,4,30,0.00
2014-1-7,33.2,22.3,16.2,13.6,1.4,-5.0,69,41,28,30.56,30.08,11,4,27,0.00
2014-1-8,41.7,25.1,15.0,14.6,10.4,7.5,80,57,29,30.66,30.53,2,0,9,0.00
2014-1-9,54.5,38.8,22.3,37.6,25.6,9.1,80,60,38,30.59,30.48,6,1,14,0.00
2014-1-10,70.9,54.8,36.7,64.7,49.2,32.6,98,82,60,30.49,30.13,7,1,17,0.00
2014-1-11,75.5,64.9,56.7,69.6,63.7,56.1,100,96,79,30.12,29.64,14,3,31,0.00
2014-1-12,57.7,50.2,34.2,57.1,42.8,31.6,100,79,42,30.22,29.69,10,3,26,0.00
2014-1-13,63.6,46.0,30.4,56.5,41.5,27.5,96,85,60,30.26,30.01,5,0,13,0.00
2014-1-14,63.9,54.9,40.0,61.7,53.0,38.4,98,93,86,30.01,29.74,11,2,30,0.00
2014-1-15,59.9,44.8,34.4,55.3,42.3,32.3,97,91,77,30.01,29.86,3,0,9,0.00
2014-1-16,44.6,39.9,28.0,42.7,36.8,24.5,95,89,78,30.09,29.85,7,1,18,0.00
2014-1-17,55.1,41.8,25.9,44.7,33.2,22.0,94,73,41,30.12,29.88,6,1,16,0.00
2014-1-18,54.6,38.6,23.4,46.4,29.0,16.8,89,70,39,30.11,29.81,18,3,30,0.00
2014-1-19,56.7,36.7,22.7,36.8,27.7,17.7,90,72,42,30.09,29.91,8,1,22,0.00
2014-1-20,58.1,43.4,29.6,41.4,34.8,27.1,94,75,40,29.98,29.82,7,2,18,0.00
2014-1-21,61.2,46.9,31.9,50.5,37.8,28.0,97,74,41,29.87,29.47,11,3,25,0.00
2014-1-22,33.3,25.8,16.9,28.1,17.3,10.3,86,71,54,30.16,29.68,10,1,22,0.00
2014-1-23,41.6,26.7,15.2,26.5,14.3,10.9,88,63,33,30.37,30.15,4,0,13,0.00
2014-1-24,29.9,22.6,10.7,12.7,2.4,-2.5,77,43,27,30.58,30.36,10,3,23,0.00
2014-1-25,48.4,31.1,10.4,29.4,17.7,4.6,79,60,38,30.36,29.69,12,3,31,0.00
2014-1-26,51.7,40.3,24.1,37.7,25.4,12.7,83,56,35,30.05,29.86,4,1,16,0.00
2014-1-27,62.4,50.8,40.7,44.9,39.2,30.3,90,66,44,30.04,29.84,8,2,21,0.00
2014-1-28,40.4,29.4,23.7,30.7,22.3,18.6,88,76,56,30.31,30.04,10,5,29,0.00
2014-1-29,29.8,23.9,19.8,21.5,16.4,11.6,88,73,61,30.40,30.07,7,2,18,0.00
2014-1-30,37.9,30.8,22.9,33.6,24.2,11.9,93,77,60,30.42,30.21,5,1,14,0.00
2014-1-31,53.9,39.2,28.5,44.0,34.4,25.1,94,84,55,30.26,30.17,3,0,9,0.00
2014-2-1,61.1,41.8,25.4,48.1,35.3,18.1,93,79,46,30.28,30.11,4,0,9,0.00
2014-2-2,69.2,52.3,43.6,58.0,48.4,40.0,97,87,62,30.15,30.08,7,1,13,0.00
2014-2-3,72.4,54.1,42.3,69.5,51.4,37.2,97,91,82,30.25,29.96,11,2,30,0.00
2014-2-4,46.8,42.4,39.4,43.2,38.9,36.0,94,87,79,30.38,30.08,7,2,21,0.00
2014-2-5,68.9,56.1,44.8,66.5,54.5,43.2,99,94,88,30.08,29.79,12,2,32,0.00
2014-2-6,49.8,41.6,35.9,47.4,31.5,26.3,92,68,53,30.39,30.02,8,2,19,0.00
2014-2-7,49.0,37.5,31.6,42.4,32.8,28.2,94,84,53,30.37,30.27,3,0,14,0.00
2014-2-8,43.2,37.1,30.0,41.3,34.5,27.3,94,91,77,30.31,30.11,5,1,14,0.00
2014-2-9,54.4,39.3,28.2,50.0,36.1,25.9,98,89,64,30.23,30.03,5,0,11,0.00
2014-2-10,49.0,40.7,35.5,43.9,35.3,29.2,98,82,61,30.27,30.02,8,2,17,0.00
2014-2-11,35.6,31.4,28.9,31.1,28.4,25.0,94,88,81,30.39,30.23,6,3,17,0.00
2014-2-12,56.4,36.2,29.3,54.9,33.2,25.4,98,89,82,30.38,29.66,12,4,25,0.00
2014-2-13,58.9,46.0,36.2,58.1,44.5,33.9,98,94,88,29.67,29.39,11,4,22,0.00
2014-2-14,56.7,44.2,31.8,39.9,35.5,29.0,94,73,47,29.86,29.67,7,2,17,0.00
2014-2-15,52.2,46.3,33.7,46.6,35.8,16.8,85,67,44,30.06,29.50,12,4,29,0.00
2014-2-16,53.4,38.9,30.3,30.9,24.1,17.1,87,57,38,30.18,30.05,6,1,14,0.00
2014-2-17,45.4,36.6,29.2,31.3,27.4,25.5,90,70,49,30.42,30.18,8,2,18,0.00
2014-2-18,67.0,48.7,36.3,50.9,39.5,31.0,93,73,42,30.25,30.13,7,1,18,0.00
2014-2-19,69.7,54.3,36.4,57.5,46.9,32.6,92,77,60,30.17,29.94,11,2,28,0.00
2014-2-20,75.3,61.5,49.1,61.7,52.5,37.8,95,73,51,30.24,30.12,9,1,18,0.00
2014-2-21,76.7,66.1,55.0,66.2,61.9,54.2,98,87,69,30.12,29.88,10,3,38,0.00
2014-2-22,65.4,50.9,40.0,53.9,41.6,31.0,97,76,29,30.19,30.02,5,1,14,0.00
2014-2-23,68.5,51.3,35.8,47.2,41.4,33.2,92,72,33,30.14,29.91,3,0,9,0.00
2014-2-24,62.8,49.4,35.5,47.0,41.1,32.6,98,76,39,30.16,29.89,6,1,14,0.00
2014-2-25,69.4,46.9,31.6,52.1,38.6,29.1,93,75,51,30.15,29.88,8,1,20,0.00
2014-2-26,46.1,40.1,34.3,38.0,35.1,30.6,91,83,69,30.00,29.81,4,0,14,0.00
2014-2-27,56.1,40.2,29.3,40.5,33.7,26.7,92,80,46,29.99,29.76,6,1,19,0.00
2014-2-28,44.1,36.8,29.9,31.7,26.5,23.7,87,67,48,30.32,29.99,11,4,25,0.00
2014-3-1,59.8,45.0,34.5,43.0,35.1,27.4,88,69,51,30.35,30.23,5,1,14,0.00
2014-3-2,69.6,52.4,35.2,50.3,42.3,31.1,90,71,42,30.25,29.98,6,1,15,0.00
2014-3-3,69.2,46.5,30.4,54.2,39.9,27.8,91,79,56,30.22,29.91,10,4,25,0.00
2014-3-4,35.2,31.3,27.4,31.9,27.7,22.6,90,86,81,30.30,30.19,8,4,21,0.00
2014-3-5,41.3,37.1,33.3,38.5,34.4,30.7,91,90,88,30.27,30.14,6,1,19,0.00
2014-3-6,47.0,40.4,35.1,45.1,36.8,31.7,93,87,74,30.32,29.99,11,5,28,0.00
2014-3-7,52.5,47.1,40.7,50.2,45.0,38.3,94,92,91,29.98,29.65,12,8,30,0.00
2014-3-8,63.7,47.1,34.5,46.2,39.9,32.4,92,79,41,30.10,29.86,10,3,21,0.00
2014-3-9,68.9,51.8,37.6,48.1,42.6,34.7,94,74,38,30.09,30.00,5,1,14,0.00
2014-3-10,71.9,50.4,33.0,51.7,39.9,30.0,92,72,27,30.07,29.83,5,1,13,0.00
2014-3-11,74.1,54.6,39.9,52.1,45.6,37.2,96,75,37,29.86,29.72,6,1,16,0.00
2014-3-12,70.9,59.2,49.6,59.4,54.0,48.1,97,83,58,29.75,29.35,12,3,30,0.00
2014-3-13,57.6,41.7,25.7,54.5,21.1,11.3,94,46,27,30.27,29.46,16,6,34,0.00
2014-3-14,56.6,38.4,20.8,35.1,23.6,12.1,83,59,29,30.40,30.18,5,1,18,0.00
2014-3-15,73.3,57.2,38.2,47.2,42.2,25.8,85,60,31,30.20,29.97,9,2,21,0.00
2014-3-16,56.8,48.9,38.5,51.7,44.6,35.3,93,85,71,30.07,29.82,5,1,13,0.00
2014-3-17,48.8,42.7,38.9,46.7,40.6,36.8,95,92,90,29.93,29.75,6,2,16,0.00
2014-3-18,48.8,43.8,39.7,46.7,41.8,37.1,94,92,91,30.08,29.83,10,4,23,0.00
2014-3-19,66.7,52.8,43.5,60.9,49.2,41.0,94,88,73,30.13,29.99,7,2,17,0.00
2014-3-20,69.6,53.9,42.9,50.9,45.9,39.9,95,77,37,30.04,29.94,5,1,15,0.00
2014-3-21,67.2,49.1,34.4,46.9,38.1,31.2,94,71,28,30.19,30.03,5,1,13,0.00
2014-3-22,75.7,58.3,39.8,60.5,48.6,36.8,92,73,39,30.14,29.98,10,2,23,0.00
2014-3-23,64.5,54.4,41.2,57.2,45.4,32.8,91,74,47,30.13,29.91,8,2,24,0.00
2014-3-24,50.7,41.5,31.5,34.2,26.7,20.8,89,59,31,30.28,30.11,7,2,18,0.00
2014-3-25,56.4,42.5,30.5,48.0,37.5,25.8,90,82,67,30.21,29.64,9,2,24,0.00
2014-3-26,48.2,38.4,26.5,35.4,23.6,16.2,88,59,31,30.36,29.81,12,5,27,0.00
2014-3-27,58.9,39.2,21.9,36.4,25.5,13.0,86,61,29,30.54,30.35,4,0,13,0.00
2014-3-28,74.5,56.6,35.8,58.9,48.9,32.1,93,77,57,30.40,30.19,7,1,22,0.00
2014-3-29,73.4,66.0,62.3,64.3,60.7,56.8,93,83,70,30.21,29.66,5,2,26,0.00
2014-3-30,65.9,53.8,46.7,63.5,44.7,35.0,92,72,48,29.90,29.58,12,4,28,0.00
2014-3-31,68.6,52.3,40.0,39.5,34.1,29.4,81,52,28,30.12,29.90,11,3,29,0.00
2014-4-1,76.4,53.6,33.1,52.7,39.6,29.9,93,66,26,30.19,30.08,7,1,17,0.00
2014-4-2,80.1,61.1,45.4,61.6,51.4,44.1,97,74,38,30.14,30.05,5,1,18,0.00
2014-4-3,83.1,66.2,50.6,60.5,54.0,48.5,95,67,44,30.10,29.98,6,2,18,0.00
2014-4-4,80.5,67.3,58.3,63.7,58.5,55.2,94,75,51,29.99,29.85,9,3,27,0.00
2014-4-5,83.1,67.3,54.5,59.4,55.7,48.5,85,69,39,30.08,29.85,7,2,20,0.00
2014-4-6,60.4,55.4,51.3,49.0,42.3,36.4,80,62,50,30.20,30.07,8,3,23,0.00
2014-4-7,78.7,68.0,55.4,68.9,62.5,47.9,95,83,72,30.12,29.82,8,2,23,0.00
2014-4-8,73.8,67.6,60.2,67.5,63.5,52.8,95,87,75,29.85,29.59,8,2,23,0.00
2014-4-9,69.8,58.9,46.7,53.0,46.5,42.1,91,66,38,30.12,29.62,6,1,17,0.00
2014-4-10,74.0,57.2,39.3,55.7,45.7,38.0,97,70,32,30.31,30.10,8,1,19,0.00
2014-4-11,77.8,64.5,49.8,56.6,52.7,47.2,95,69,39,30.30,30.16,8,2,23,0.00
2014-4-12,80.2,66.5,52.6,59.8,55.1,49.8,93,70,44,30.28,30.19,6,1,17,0.00
2014-4-13,81.2,65.0,50.5,63.5,55.9,47.7,93,75,51,30.29,30.19,4,0,15,0.00
2014-4-14,81.4,68.6,53.1,64.5,59.4,49.3,90,74,49,30.20,29.96,6,1,18,0.00
2014-4-15,76.6,69.3,50.0,67.6,63.8,47.2,91,83,66,29.98,29.69,11,3,31,0.00
2014-4-16,57.0,45.7,39.0,45.9,34.7,28.1,94,68,38,30.48,29.81,13,6,29,0.00
2014-4-17,42.8,41.8,40.9,38.1,35.7,29.5,85,79,64,30.46,30.43,5,1,16,0.00
2014-4-21,76.2,58.7,50.2,57.0,51.8,47.7,94,79,48,30.12,29.95,10,4,22,0.00
2014-4-22,77.8,60.2,40.8,59.7,49.7,38.6,94,72,38,29.97,29.70,7,1,19,0.00
2014-4-23,77.8,65.1,48.2,57.8,49.8,38.8,88,62,27,29.94,29.68,7,1,19,0.00
2014-4-24,73.3,55.4,42.3,48.2,42.5,36.5,94,66,30,30.17,29.94,4,0,10,0.00
2014-4-25,81.0,63.1,44.4,66.2,56.4,42.5,97,80,59,30.08,29.75,8,1,28,0.00
2014-4-26,78.0,65.0,54.7,60.8,53.1,45.6,94,69,36,30.03,29.82,6,1,17,0.00
2014-4-27,79.9,64.0,54.6,59.7,52.7,48.0,84,68,44,30.07,29.97,4,1,12,0.00
2014-4-28,86.1,70.1,55.9,68.4,61.1,49.1,88,74,49,30.06,29.93,4,0,15,0.00
2014-4-29,88.2,74.5,69.2,74.5,67.7,63.6,90,80,58,30.12,29.92,4,0,16,0.00
2014-4-30,84.3,73.9,68.3,69.6,66.4,62.6,89,78,61,30.14,30.00,8,1,25,0.00
2014-5-1,85.1,74.9,68.5,68.3,63.6,58.2,85,69,49,30.03,29.88,7,2,22,0.00
2014-5-2,78.4,68.0,59.0,60.3,54.7,48.1,78,63,44,29.95,29.86,7,1,29,0.00
2014-5-3,79.5,66.5,57.2,59.8,52.3,48.0,87,61,42,29.95,29.87,4,0,15,0.00
2014-5-23,92.5,76.0,62.5,68.3,59.8,52.3,88,59,39,30.01,29.90,3,0,12,0.00
2014-5-24,86.9,71.5,60.5,63.4,55.8,47.4,92,62,34,30.17,29.96,3,0,15,0.00
2014-5-25,86.5,68.3,52.0,62.6,54.9,46.3,87,65,35,30.24,30.14,4,0,11,0.00
2014-5-26,88.0,72.0,55.9,64.6,57.4,49.1,94,64,38,30.27,30.16,7,2,20,0.00
2014-5-27,87.7,77.3,69.6,66.7,61.3,56.6,69,58,44,30.18,30.01,9,3,25,0.00
2014-5-28,94.3,79.3,69.6,72.3,66.1,59.4,82,66,43,30.06,29.95,6,1,14,0.00
2014-5-29,86.4,74.2,67.4,66.5,63.3,57.1,85,69,51,30.13,30.00,4,0,15,0.00
2014-5-30,82.5,70.8,64.7,65.0,60.9,55.9,91,72,52,30.16,30.06,1,0,8,0.00
2014-5-31,85.4,70.1,55.0,62.9,55.0,43.8,86,61,36,30.25,30.12,10,1,19,0.00
2014-6-1,83.4,65.4,52.8,55.6,47.3,39.7,74,53,38,30.35,30.24,9,1,19,0.00
2014-6-2,88.8,66.5,47.6,58.0,48.2,35.9,73,54,33,30.33,30.18,3,0,9,0.00
2014-6-3,88.6,70.5,52.1,62.5,53.8,41.4,73,57,40,30.19,29.96,5,1,15,0.00
2014-6-4,94.2,79.7,66.3,71.4,64.1,54.7,77,60,43,29.97,29.84,4,1,18,0.00
2014-6-5,88.3,77.7,70.3,70.2,64.8,60.2,75,65,53,29.88,29.76,10,3,28,0.00
2014-6-6,89.8,77.4,69.8,68.7,62.7,59.4,76,62,38,29.98,29.85,6,1,15,0.00
2014-6-7,91.9,75.7,60.2,62.2,58.6,48.9,77,57,36,30.04,29.96,6,1,14,0.00
2014-6-8,88.8,71.5,55.2,63.7,56.3,46.0,78,61,39,30.06,29.96,2,0,11,0.00
2014-6-9,87.1,76.0,63.9,71.6,64.0,54.0,81,67,55,29.99,29.93,5,1,17,0.00
2014-6-10,95.4,81.2,70.4,79.8,70.3,62.4,87,71,44,30.01,29.95,8,1,24,0.00
2014-6-11,94.9,82.8,73.4,78.0,70.3,64.5,80,67,53,30.02,29.94,4,0,14,0.00
2014-6-12,93.3,79.8,71.4,71.9,66.9,60.8,75,65,49,29.99,29.88,3,0,13,0.00
2014-6-13,90.7,79.9,70.1,72.6,67.7,60.8,90,67,50,29.92,29.86,8,1,23,0.00
2014-6-14,91.3,77.7,67.2,79.9,66.2,58.2,89,68,50,30.08,29.90,3,0,13,0.00
2014-6-15,93.8,77.0,66.1,70.4,63.4,53.5,83,64,42,30.21,30.07,7,0,14,0.00
2014-6-16,93.2,77.7,62.1,74.2,63.5,50.3,84,63,45,30.24,30.15,6,0,14,0.00
2014-6-17,92.5,79.9,67.7,72.7,65.7,54.8,82,63,42,30.21,30.14,5,1,16,0.00
2014-6-18,94.4,80.9,70.1,74.9,67.8,60.0,86,66,39,30.17,30.10,5,1,18,0.00
2014-6-19,94.8,82.6,72.6,73.8,69.6,66.2,90,67,42,30.16,30.02,7,2,20,0.00
2014-6-20,95.4,81.1,70.3,74.2,69.1,63.2,91,69,45,30.08,29.96,9,0,27,0.00
2014-6-21,92.9,77.0,70.6,78.0,69.9,63.1,93,80,54,29.98,29.84,8,0,21,0.00
2014-6-22,91.3,78.4,70.4,79.5,68.3,63.2,90,72,49,29.98,29.82,7,1,19,0.00
2014-6-23,93.3,78.0,69.2,75.9,66.5,61.0,83,69,43,30.15,29.97,7,1,15,0.00
2014-6-24,94.7,81.1,69.6,74.7,68.4,61.3,84,67,47,30.16,30.07,3,0,14,0.00
2014-6-25,94.6,82.1,72.5,74.8,69.9,64.4,86,68,46,30.10,29.96,3,0,14,0.00
2014-6-26,97.8,84.5,75.4,74.7,70.3,63.4,86,65,40,30.01,29.93,4,1,14,0.00
2014-6-27,93.9,78.4,72.7,75.2,68.8,64.2,88,74,46,30.12,29.99,3,0,9,0.00
2014-6-28,88.3,76.9,70.3,76.9,70.1,65.1,92,81,50,30.21,30.10,8,1,18,0.00
2014-6-29,84.4,73.5,64.8,66.0,59.5,52.1,88,63,45,30.22,30.19,4,1,15,0.00
2014-8-25,84.1,73.4,65.2,71.3,61.1,51.5,81,66,55,30.07,30.00,8,1,18,0.00
2014-8-26,85.4,75.4,66.0,68.4,64.8,60.7,84,71,52,30.08,30.03,6,1,16,0.00
2014-8-27,90.6,77.7,69.6,71.9,67.8,64.1,85,73,52,30.04,29.92,5,1,16,0.00
2014-8-28,91.8,76.3,62.1,74.0,65.5,57.5,85,71,47,30.02,29.94,4,0,11,0.00
2014-8-29,94.6,79.3,68.9,75.6,68.1,60.1,91,70,41,30.17,30.02,4,0,11,0.00
2014-8-30,93.4,79.6,69.1,71.5,63.0,56.0,68,58,43,30.24,30.15,3,0,11,0.00
2014-8-31,92.0,77.5,68.4,68.9,61.5,55.3,67,58,46,30.21,30.10,4,0,11,0.00
2014-9-1,92.3,80.9,73.3,70.4,64.6,60.4,65,58,47,30.14,30.06,3,0,11,0.00
2014-9-2,93.3,81.5,72.6,72.5,65.4,59.6,65,59,48,30.10,29.99,6,1,15,0.00
2014-9-3,91.6,81.6,73.4,70.7,65.3,60.9,66,58,48,30.15,30.02,5,1,15,0.00
2014-9-4,92.4,80.9,72.1,69.7,64.4,59.2,65,58,47,30.21,30.13,4,0,11,0.00
2014-9-5,89.8,78.1,70.7,69.4,63.2,58.8,69,61,49,30.22,30.12,4,0,15,0.00
2014-9-6,90.4,79.9,71.9,68.1,63.4,59.1,66,58,47,30.13,29.98,7,1,19,0.00
2014-9-7,91.6,77.6,71.3,69.6,62.6,58.8,68,60,48,30.10,29.99,3,0,13,0.00
2014-9-8,86.8,76.0,70.9,69.8,62.7,58.1,70,64,54,30.13,30.05,6,0,20,0.00
2014-9-9,85.3,76.8,72.9,66.8,62.1,58.9,68,61,50,30.08,30.00,5,0,19,0.00
2014-9-10,88.9,77.7,68.4,72.7,67.8,56.6,96,73,55,30.11,30.01,1,0,8,0.00
2014-10-1,73.7,71.0,68.8,65.1,61.7,56.5,87,74,55,30.12,29.84,0,0,0,0.00
2014-11-7,64.1,53.2,39.7,48.0,42.5,38.0,96,70,44,30.03,29.84,6,1,14,0.00
2014-11-8,64.6,48.9,34.7,51.0,43.4,34.0,98,84,49,30.08,29.95,1,0,5,0.00
2014-11-9,62.6,52.0,40.6,53.0,47.6,40.0,97,86,56,30.01,29.91,3,0,4,0.00
2014-11-10,65.9,54.7,40.7,56.0,50.4,40.0,98,86,65,30.09,29.99,9,1,11,0.00
2014-11-11,67.9,64.4,58.8,67.0,63.5,57.0,98,96,92,29.98,29.83,3,0,7,0.74
2014-11-12,76.2,64.5,56.1,64.0,60.7,55.0,98,89,56,30.00,29.84,3,0,8,0.00
2014-11-13,68.8,59.1,47.3,61.0,56.2,46.0,98,90,72,30.04,29.91,4,1,10,0.02
2014-11-14,47.3,41.4,33.2,46.0,36.4,29.0,95,83,65,30.25,29.95,10,1,15,0.06
2014-11-15,48.7,37.2,30.0,35.0,30.2,27.0,96,78,49,30.39,30.24,7,1,10,0.00
2014-11-16,56.8,45.7,30.9,53.0,43.6,30.0,98,92,78,30.36,30.03,4,0,8,0.72
2014-11-17,76.3,64.3,50.8,72.0,62.2,50.0,99,93,82,30.04,29.66,12,2,26,0.34
2014-11-18,64.5,42.0,26.6,60.0,30.6,20.0,86,66,37,30.31,29.73,8,2,15,0.00
2014-11-19,45.2,31.2,21.1,26.0,20.7,11.0,92,70,27,30.44,30.26,5,0,11,0.00
2014-11-20,58.4,44.6,26.9,43.0,32.9,25.0,96,68,33,30.26,30.04,8,1,14,0.00
2014-11-21,51.6,41.0,27.7,39.0,28.5,20.0,95,66,30,30.53,30.15,12,1,14,0.00
2014-11-22,59.3,39.9,25.5,38.0,31.9,24.0,95,77,40,30.57,30.33,3,0,8,0.00
2014-11-23,69.4,54.7,36.5,67.0,52.6,35.0,96,93,85,30.32,29.84,17,2,20,0.14
2014-11-24,73.0,69.2,64.9,70.0,67.6,64.0,98,94,89,29.95,29.82,9,2,21,1.09
2014-11-25,69.1,65.2,61.2,65.0,63.4,61.0,98,94,84,30.07,29.93,3,0,7,0.18
2014-11-26,71.7,54.6,43.6,71.0,53.2,41.0,99,95,80,30.09,29.68,7,1,14,0.51
2014-11-27,59.0,44.9,34.1,51.0,39.8,34.0,99,84,43,30.19,29.93,7,1,15,0.00
2014-11-28,46.2,37.2,27.2,34.0,28.6,25.0,96,73,45,30.33,30.18,6,1,12,0.00
2014-11-29,55.0,37.4,26.2,36.0,29.6,25.0,97,79,33,30.38,30.27,4,0,6,0.00
2014-11-30,68.0,49.1,32.3,51.0,41.9,32.0,98,80,39,30.37,30.26,5,1,10,0.00
2014-12-1,73.9,54.0,40.1,56.0,48.3,40.0,98,84,42,30.38,30.27,6,1,13,0.00
2014-12-2,56.1,50.8,40.5,53.0,49.8,40.0,99,96,90,30.42,30.31,6,1,11,0.00
2014-12-3,73.6,57.1,49.2,63.0,54.5,49.0,99,92,67,30.30,30.16,3,0,7,0.00
2014-12-4,56.8,52.5,48.3,55.0,48.2,44.0,98,86,67,30.37,30.23,6,1,14,0.00
2014-12-5,61.7,53.2,46.4,53.0,48.9,44.0,95,85,72,30.41,30.31,5,1,10,0.00
2014-12-6,68.7,58.9,48.2,65.0,57.7,47.0,98,96,87,30.30,30.00,2,0,6,0.26
2014-12-7,61.4,47.9,43.9,60.0,43.6,38.0,97,85,75,30.32,29.98,12,5,23,0.00
2014-12-8,57.8,49.8,43.8,49.0,45.0,38.0,96,84,68,30.28,30.01,9,3,22,0.01
2014-12-9,46.1,43.3,41.2,45.0,42.2,40.0,97,96,92,30.00,29.83,6,2,14,0.13
2014-12-10,53.8,46.0,38.1,43.0,38.8,32.0,94,77,54,29.95,29.85,7,1,14,0.01
2014-12-11,49.3,35.0,25.4,32.0,27.7,25.0,97,78,40,30.09,29.95,8,1,15,0.00
2014-12-12,56.0,36.4,24.2,35.0,27.3,23.0,97,75,32,30.18,30.06,5,0,9,0.00
2014-12-13,56.0,36.9,25.8,39.0,30.5,25.0,97,82,39,30.12,29.99,3,0,6,0.00
2014-12-14,56.7,39.4,29.0,42.0,33.6,28.0,97,83,44,30.04,29.96,4,0,9,0.00
2014-12-15,62.6,40.7,27.5,43.0,35.2,27.0,98,84,47,30.12,30.02,3,0,5,0.01
2014-12-16,66.6,50.7,30.4,57.0,43.8,30.0,98,80,44,30.10,29.91,7,1,13,0.00
2014-12-17,62.4,51.5,41.2,52.0,44.1,40.0,97,78,50,30.09,29.94,7,1,10,0.00
2014-12-18,52.9,41.2,30.4,41.0,34.9,29.0,98,81,44,30.16,30.04,6,0,9,0.00
2014-12-19,53.9,40.0,29.6,37.0,32.9,29.0,97,79,44,30.21,30.07,5,0,10,0.00
2014-12-20,44.1,38.6,32.9,41.0,37.0,32.0,98,94,87,30.26,30.19,3,0,6,0.08
2014-12-21,47.5,42.2,33.2,44.0,39.3,33.0,98,90,76,30.30,30.16,5,1,12,0.09
2014-12-22,51.0,48.9,44.7,50.0,48.2,44.0,98,97,96,30.16,29.94,5,1,10,0.14
2014-12-23,56.1,49.9,44.1,55.0,49.1,44.0,98,97,92,30.06,29.97,2,0,5,0.12
2014-12-24,71.6,66.5,55.5,70.0,65.6,55.0,99,97,92,29.98,29.72,8,1,17,0.96
2014-12-25,70.1,55.3,35.8,69.0,50.9,35.0,98,87,55,30.24,29.72,7,1,15,0.05
2014-12-26,59.8,41.8,30.4,47.0,36.4,30.0,99,85,46,30.35,30.23,3,0,5,0.00
2014-12-27,63.9,43.2,29.2,47.0,38.3,29.0,99,86,52,30.36,30.20,4,0,8,0.01
2014-12-28,71.8,57.0,40.5,61.0,53.4,40.0,98,88,68,30.19,30.00,7,1,13,0.00
2014-12-29,59.4,53.8,46.3,59.0,52.9,45.0,98,96,93,30.14,30.00,6,1,11,0.13
2014-12-30,47.4,43.0,35.5,45.0,40.5,33.0,97,91,83,30.39,30.12,8,2,16,0.01
2014-12-31,48.8,36.7,27.3,34.0,29.8,23.0,96,79,38,30.44,30.34,4,1,10,0.00
2015-1-1,53.0,36.4,24.1,36.0,29.2,23.0,97,80,38,30.36,30.24,5,0,8,0.00
2015-1-2,60.8,50.0,37.5,49.0,43.4,36.0,96,79,55,30.37,30.24,2,0,6,0.00